EW9981 Weather Reports


time (UTC)temp
C
wind
direction
speed
KPH
gust
KPH
rain 1hr
cm
rain 24hr
cm
rain mn
cm
humidity
%
barometer
mb
20260507083017 6 329 0.0 0.0 0.00 0.00 0.00 77 1015.4
20260507081522 6 329 0.0 0.0 0.00 0.00 0.00 76 1015.4
20260507080015 6 328 0.0 0.0 0.00 0.00 0.00 76 1015.4
20260507074515 6 328 0.0 0.0 0.00 0.00 0.00 76 1015.4
20260507073046 6 330 0.0 0.0 0.00 0.00 0.00 76 1015.3
20260507071545 6 330 0.0 1.6 0.00 0.00 0.00 76 1015.4
20260507070044 6 330 0.0 0.0 0.00 0.00 0.00 76 1015.5
20260507064540 6 330 0.0 1.6 0.00 0.00 0.00 76 1015.7
20260507063046 6 306 0.0 1.6 0.00 0.00 0.00 76 1015.6
20260507061541 6 303 0.0 0.0 0.00 0.00 0.00 75 1015.6
20260507060049 7 307 0.0 0.0 0.00 0.00 0.00 74 1015.7
20260507054508 7 307 0.0 0.0 0.00 0.00 0.00 74 1015.7
20260507053007 7 307 0.0 0.0 0.00 0.00 0.00 73 1015.7
20260507051505 7 307 0.0 0.0 0.00 0.00 0.00 72 1015.7
20260507050005 8 307 0.0 0.0 0.00 0.00 0.00 73 1015.7
20260507044511 8 307 0.0 0.0 0.00 0.00 0.00 72 1015.6
20260507043003 9 307 0.0 0.0 0.00 0.00 0.00 71 1015.5
20260507041606 9 307 0.0 0.0 0.00 0.00 0.00 71 1015.4
20260507040100 10 307 0.0 0.0 0.00 0.00 0.00 69 1015.5
20260507034613 11 307 0.0 0.0 0.00 0.00 0.00 68 1015.3
20260507033059 11 307 0.0 0.0 0.00 0.00 0.00 66 1015.2
20260507031558 12 307 0.0 0.0 0.00 0.00 0.00 65 1015.0
20260507024559 13 307 0.0 0.0 0.00 0.00 0.00 61 1014.9
20260507023056 14 307 0.0 0.0 0.00 0.00 0.00 58 1014.9
20260507021556 15 307 0.0 1.6 0.00 0.00 0.00 54 1015.0
20260507020053 15 307 0.0 0.0 0.00 0.00 0.00 51 1015.0
20260507014554 16 313 0.0 0.0 0.00 0.00 0.00 49 1015.1
20260507013100 17 325 0.0 0.0 0.00 0.00 0.00 47 1015.0
20260507011550 17 305 0.0 1.6 0.00 0.00 0.00 46 1015.0
20260507010050 17 346 0.0 1.6 0.00 0.00 0.00 45 1014.9
20260507004549 18 349 0.0 1.6 0.00 0.00 0.00 45 1014.9
20260507003048 18 300 0.0 8.0 0.00 0.00 0.00 44 1014.9
20260507001524 18 336 0.0 1.6 0.00 0.00 0.00 44 1014.8
20260507000018 18 242 0.0 4.8 0.00 0.00 0.00 43 1014.8
20260506234515 18 322 0.0 6.4 0.00 0.00 0.00 42 1014.8
20260506233014 18 288 0.0 1.6 0.00 0.00 0.00 42 1014.7
20260506231514 18 324 0.0 3.2 0.00 0.00 0.00 41 1014.9
20260506230011 18 285 0.0 1.6 0.00 0.00 0.00 43 1014.9
20260506224508 18 235 0.0 1.6 0.00 0.00 0.00 44 1015.1
20260506223008 18 287 0.0 1.6 0.00 0.00 0.00 44 1015.3
20260506221507 18 276 0.0 3.2 0.00 0.00 0.00 44 1015.3
20260506220007 18 234 0.0 0.0 0.00 0.00 0.00 46 1015.6
20260506214506 18 285 0.0 1.6 0.00 0.00 0.00 44 1015.7
20260506213002 18 273 0.0 3.2 0.00 0.00 0.00 46 1016.0
20260506211559 17 305 0.0 0.0 0.00 0.00 0.00 49 1016.1
20260506210057 17 299 0.0 1.6 0.00 0.00 0.00 50 1016.0
20260506204604 17 271 0.0 0.0 0.00 0.00 0.00 52 1016.2
20260506203052 16 290 0.0 4.8 0.00 0.00 0.00 53 1016.4
20260506201546 16 255 0.0 0.0 0.00 0.00 0.00 56 1016.4
20260506200044 16 244 0.0 1.6 0.00 0.00 0.00 57 1016.6
20260506194555 15 261 0.0 0.0 0.00 0.00 0.00 55 1016.7
20260506193038 15 262 0.0 1.6 0.00 0.00 0.00 56 1016.8
20260506191537 15 263 0.0 0.0 0.00 0.00 0.00 55 1016.8
20260506190036 15 256 0.0 0.0 0.00 0.00 0.00 55 1016.9
20260506184533 15 250 0.0 0.0 0.00 0.00 0.00 57 1017.1
20260506183032 14 294 0.0 6.4 0.00 0.00 0.00 55 1017.3
20260506181533 13 248 0.0 4.8 0.00 0.05 0.00 57 1017.3
20260506180026 13 247 0.0 1.6 0.00 0.05 0.00 58 1017.2
20260506174518 12 287 0.0 1.6 0.00 0.05 0.00 57 1017.3
20260506173013 11 274 0.0 0.0 0.00 0.05 0.00 55 1017.2
20260506171512 11 286 0.0 3.2 0.00 0.15 0.00 55 1017.2
20260506170007 10 298 0.0 1.6 0.00 0.15 0.00 60 1016.9
20260506164604 9 293 0.0 1.6 0.00 0.15 0.00 69 1016.8
20260506163104 7 263 0.0 0.0 0.00 0.15 0.00 85 1016.7
20260506161600 6 273 0.0 0.0 0.00 0.23 0.00 93 1016.7
20260506160047 5 276 0.0 0.0 0.00 0.23 0.00 94 1016.6
20260506154552 5 277 0.0 0.0 0.00 0.23 0.00 94 1016.6
20260506153008 3 276 0.0 0.0 0.00 0.23 0.00 94 1016.6
20260506151505 2 276 0.0 0.0 0.00 0.36 0.00 93 1016.6
20260506150100 2 278 0.0 0.0 0.00 0.36 0.00 93 1016.6
20260506144602 1 278 0.0 0.0 0.00 0.36 0.00 92 1016.6
20260506143052 0 278 0.0 0.0 0.00 0.36 0.00 91 1016.5
20260506141551 0 278 0.0 0.0 0.00 0.48 0.00 91 1016.3
20260506140057 0 278 0.0 0.0 0.00 0.48 0.00 91 1016.2
20260506134544 0 278 0.0 0.0 0.00 0.48 0.00 90 1016.1
20260506133049 0 278 0.0 0.0 0.00 0.48 0.00 90 1015.9
20260506131542 0 278 0.0 0.0 0.00 0.51 0.00 90 1015.7
20260506130011 0 278 0.0 0.0 0.00 0.51 0.00 90 1015.5
20260506124509 0 278 0.0 0.0 0.00 0.51 0.00 90 1015.3
20260506123006 0 278 0.0 0.0 0.00 0.51 0.00 90 1015.1
20260506121504 0 278 0.0 0.0 0.00 0.51 0.00 90 1015.0
20260506120004 0 278 0.0 0.0 0.00 0.51 0.00 89 1014.9
20260506114502 0 278 0.0 0.0 0.00 0.51 0.00 89 1014.8
20260506113101 0 278 0.0 1.6 0.00 0.51 0.00 89 1014.8
20260506111606 0 278 0.0 0.0 0.00 0.53 0.51 89 1014.6
20260506110055 1 278 0.0 0.0 0.00 0.53 0.51 89 1014.5
20260506104558 1 278 0.0 0.0 0.00 0.53 0.51 89 1014.4
20260506103058 1 278 0.0 0.0 0.00 0.53 0.51 88 1014.3
20260506101552 1 278 0.0 0.0 0.00 0.53 0.51 88 1014.1
20260506100048 1 278 0.0 0.0 0.00 0.53 0.51 88 1014.1
20260506094545 2 278 0.0 0.0 0.00 0.53 0.51 88 1014.1
20260506093040 2 278 0.0 0.0 0.00 0.53 0.51 88 1014.2
20260506091538 2 278 0.0 0.0 0.00 0.53 0.51 88 1014.3
20260506090036 3 278 0.0 0.0 0.00 0.53 0.51 88 1014.3
20260506084540 3 278 0.0 0.0 0.00 0.53 0.51 89 1014.4